This is the latest recevied weather packets stored in our database for station/object M0JUI-1. If no packets are shown the sender has not sent any weather packets the latest 10 day(s).
| Time | Temp. | Humidity | Pressure | Rain* | Wind** | Luminosity | Snow |
|---|---|---|---|---|---|---|---|
| 1778099739 | 6.67° C | 1% | 1015.7 hPa | 0 mm | - | 0 W/m² | - |
| 1778099440 | 7.22° C | 1% | 1015.8 hPa | 0 mm | - | 0 W/m² | - |
| 1778099139 | 7.22° C | 1% | 1015.7 hPa | 0 mm | - | 0 W/m² | - |
| 1778098839 | 7.22° C | 2% | 1015.7 hPa | 0 mm | - | 0 W/m² | - |
| 1778098539 | 7.22° C | 3% | 1015.4 hPa | 0 mm | - | 0 W/m² | - |
| 1778098239 | 7.78° C | 4% | 1015.5 hPa | 0 mm | - | 0 W/m² | - |
| 1778097940 | 7.78° C | 4% | 1015.4 hPa | 0 mm | - | 0 W/m² | - |
| 1778097640 | 7.78° C | 5% | 1015.5 hPa | 0 mm | - | 0 W/m² | - |
| 1778097339 | 7.78° C | 5% | 1015.4 hPa | 0 mm | - | 0 W/m² | - |
| 1778097028 | 8.33° C | 5% | 1015.2 hPa | 0 mm | - | 0 W/m² | - |
| 1778096728 | 8.33° C | 5% | 1015.1 hPa | 0 mm | - | 2 W/m² | - |
| 1778096428 | 8.33° C | 4% | 1015.1 hPa | 0 mm | - | 3 W/m² | - |
| 1778096127 | 8.33° C | 4% | 1015 hPa | 0 mm | - | 5 W/m² | - |
| 1778095827 | 8.33° C | 4% | 1015.1 hPa | 0 mm | - | 7 W/m² | - |
| 1778095527 | 8.89° C | 3% | 1015 hPa | 0 mm | - | 10 W/m² | - |
| 1778095227 | 8.89° C | 3% | 1014.8 hPa | 0 mm | - | 12 W/m² | - |
| 1778094915 | 8.89° C | 2% | 1014.9 hPa | 0 mm | - | 16 W/m² | - |
| 1778094616 | 9.44° C | 1% | 1015.1 hPa | 0 mm | - | 20 W/m² | - |
| 1778094315 | 9.44° C | 1% | 1015 hPa | 0 mm | - | 23 W/m² | - |
| 1778094016 | 9.44° C | 1% | 1014.9 hPa | 0 mm | - | 26 W/m² | - |
| 1778093715 | 9.44° C | 1% | 1015 hPa | 0 mm | - | 30 W/m² | - |
| 1778093415 | 9.44° C | 1% | 1014.8 hPa | 0 mm | - | 33 W/m² | - |
| 1778093115 | 9.44° C | 1% | 1014.9 hPa | 0 mm | - | 34 W/m² | - |
| 1778092811 | 9.44° C | 99% | 1014.7 hPa | 0 mm | - | 32 W/m² | - |
| 1778092503 | 10° C | 99% | 1014.8 hPa | 0 mm | - | 42 W/m² | - |
* Rain latest hour (hover to see other rain measurements)
** Current wind speed in m/s (hover to see current wind gust speed)